[[{"header":{"parameterUnit":"m.s-1","parameterCategory":1,"la1":30.2991,"la2":30.254,"lo1":-89.0895,"lo2":-89.0444,"dy":0.0017,"dx":0.0017,"nx":28,"ny":28,"refTime":"2025-05-16T09:00:00:Z","depth":0,"parameterNumber":2,"parameterNumberName":"U-component_of_WINDS"},"data":[0,0,0,0,0,0,0,0,0,0,0,0,0,0,0,0,0,0,0,0,0,0,0,0,0,0,0,0,0,0,0,0,0,0,0,0,0,0,0,0,0,0,0,0,0,0,0,0,0,0,0,0,0,0,0,0,0,0,2.3873,2.3874,0,2.3954,2.3955,2.3955,2.3932,2.393,2.3928,2.3927,2.4007,2.4011,2.4014,0,0,0,0,0,0,0,0,0,0,0,0,0,2.3696,2.37,2.3873,2.3874,2.3875,2.3953,2.3955,2.3956,2.3932,2.393,2.3928,2.3926,2.4006,2.401,2.4015,0,0,0,0,0,0,0,0,0,0,0,0,0,2.3775,2.3701,2.3873,2.3873,2.3874,2.3953,2.3955,2.3956,2.3932,2.393,2.3927,2.3925,2.4004,2.401,2.4015,2.4099,0,0,2.4032,2.4035,0,0,0,0,0,0,0,0,2.377,2.3781,2.3872,2.3873,2.3874,2.393,2.3922,2.4004,2.3933,2.391,2.3927,2.3924,2.3983,2.399,2.4011,2.4103,2.4107,2.4033,2.4036,2.4038,2.404,0,0,0,0,0,0,0,2.3765,2.3778,2.3905,2.3873,2.3875,2.3868,2.3876,2.3937,2.396,2.3912,2.391,2.392,2.3983,2.4006,2.4013,2.4108,2.4033,2.4037,2.4041,2.4043,2.4271,2.4274,0,0,0,0,0,0,2.3759,2.3773,2.3902,2.3907,2.3815,2.3873,2.3882,2.3915,2.3959,2.3963,2.3922,2.3919,2.3997,2.4006,2.4015,2.4116,2.4038,2.4044,2.4047,2.4269,2.4272,2.4275,0,0,0,0,0,0,2.3755,2.3771,2.3899,2.384,2.3856,2.3879,2.3915,2.3917,2.394,2.3967,2.397,2.3941,2.3996,2.4008,2.4078,2.4118,2.4046,2.4051,2.4265,2.427,2.4273,2.4317,0,0,0,0,0,0,2.375,2.377,2.3802,2.3841,2.3859,2.3962,2.3918,2.3921,2.395,2.3946,2.3985,2.399,2.3995,2.407,2.4084,2.4124,2.4055,2.4262,2.4267,2.4272,2.4312,2.4322,2.4331,0,0,0,0,0,2.3744,2.3811,2.3804,2.382,2.3901,2.3964,2.3974,2.398,2.3953,2.3985,2.4003,2.3988,2.4112,2.4078,2.4093,2.4136,2.4259,2.4266,2.4272,2.4308,2.4321,2.4331,0,0,0,0,0,0,2.3776,2.3816,2.3809,2.3891,2.3924,2.396,2.4001,2.3993,2.4034,2.4028,2.4033,2.4042,2.4114,2.4132,2.4093,2.4219,2.4182,2.4191,2.4204,2.4216,2.4225,2.4219,2.406,0,0,0,0,0,2.3793,2.3842,2.3874,2.3943,2.3961,2.3978,2.4006,2.4007,2.4042,2.4056,2.4078,2.4111,2.4158,2.4188,2.4232,2.4315,2.4323,2.4352,2.4361,2.4369,2.4377,2.442,2.4433,2.4295,2.4295,2.4295,0,0,2.3828,2.3856,2.3887,2.3951,2.3977,2.4026,2.399,2.4044,2.4081,2.4064,2.4132,2.4149,2.4187,2.4264,2.4299,2.4281,2.4416,2.4377,2.4382,2.4386,2.4428,2.4441,2.4453,2.4299,2.4299,2.4298,0,0,2.3917,2.3943,2.4003,2.403,2.407,2.4082,2.4096,2.4133,2.4144,2.4213,2.4201,2.4244,2.4324,2.435,2.4375,2.4473,2.4461,2.4487,2.4535,2.4578,2.4589,2.4599,2.4632,2.4644,2.4495,2.4495,2.4495,0,2.3955,2.403,2.4035,2.409,2.4118,2.4106,2.4165,2.4191,2.4243,2.4262,2.4242,2.4341,2.4366,2.4448,2.4472,2.4493,2.4508,2.4482,2.4587,2.4597,2.4606,2.4638,2.4651,2.4498,2.4498,2.4498,2.4497,0,2.4074,2.4126,2.4169,2.4221,2.4253,2.4311,2.4324,2.4357,2.4355,2.4368,2.4437,2.4466,2.4515,2.4535,2.4534,2.4617,2.4605,2.4586,2.4548,2.4622,2.4652,2.4664,2.4502,2.4501,2.45,2.45,0,0,2.4184,2.4238,2.4254,2.4276,2.4319,2.4359,2.4416,2.4464,2.4491,2.4528,2.4574,2.4642,2.4624,2.4652,2.4654,2.4691,2.4766,2.4668,2.4668,2.4684,2.4858,2.487,2.4885,2.4758,2.4761,2.4763,2.4854,0,2.4275,2.4375,2.4382,2.4472,2.4519,2.4507,2.4556,2.4587,2.4601,2.4643,2.4657,2.4705,2.4679,2.4695,2.4732,2.4749,2.48,2.4743,2.48,2.4802,2.479,2.4901,2.4915,2.5,2.4866,2.4868,2.4869,0,2.4395,2.4436,2.453,2.4566,2.4586,2.463,2.4675,2.4715,2.475,2.4757,2.4787,2.4784,2.484,2.4802,2.4879,2.4839,2.4863,2.4875,2.4878,2.4883,2.4839,2.4907,2.5027,2.5039,2.4888,2.4887,2.4885,0,2.4464,2.4543,2.4609,2.4629,2.4673,2.4704,2.4723,2.4756,2.4784,2.4823,2.4841,2.4886,2.491,2.4944,2.4952,2.4924,2.5029,2.4992,2.5035,2.5035,2.5057,2.5055,2.5181,2.5075,2.5075,2.5074,2.5074,0,2.4565,2.4623,2.4641,2.4682,2.4746,2.4752,2.4815,2.4833,2.4862,2.4905,2.4898,2.4938,2.4947,2.4989,2.4995,2.5057,2.5069,2.5075,2.5076,2.5075,2.5074,2.509,2.5083,2.5078,2.5077,2.5076,2.5076,0,2.4653,2.4667,2.4739,2.4774,2.4785,2.483,2.486,2.4899,2.4912,2.4966,2.4979,2.4999,2.5048,2.506,2.5118,2.5122,2.5195,2.5191,2.5183,2.5183,2.5225,2.5221,2.5365,2.5383,2.5266,2.5267,2.5268,0,2.4715,2.476,2.48,2.4829,2.485,2.4896,2.4925,2.4933,2.4964,2.5006,2.5039,2.5087,2.5126,2.5205,2.5223,2.5268,2.5263,2.5311,2.527,2.5267,2.5262,2.5259,2.5263,2.5318,2.532,2.5321,2.5321,0,2.4824,2.4829,2.4872,2.4917,2.4952,2.4988,2.5022,2.5046,2.5058,2.5092,2.5142,2.5173,2.5232,2.5279,2.5324,2.5342,2.5334,2.5334,2.5346,2.5345,2.5338,2.5341,2.5203,2.5331,2.533,2.5329,2.5329,2.5328,2.49,2.4938,2.4973,2.502,2.5047,2.5079,2.5117,2.5134,2.5177,2.5226,2.5228,2.5282,2.5314,2.5373,2.5395,2.5436,2.5422,2.544,2.5444,2.5448,2.5451,2.5333,2.5445,2.5444,2.5444,2.5444,2.5444,0,2.5007,2.5028,2.5072,2.512,2.5158,2.5147,2.5184,2.5216,2.5264,2.5295,2.5334,2.5391,2.5436,2.5459,2.5504,2.5533,2.553,2.5544,2.5542,2.5546,2.5462,2.5447,2.5546,2.5546,2.5546,2.5546,2.5546,2.5546,2.5067,2.5131,2.514,2.5217,2.5238,2.5291,2.5313,2.5342,2.5367,2.5431,2.547,2.5484,2.5512,2.5559,2.56,2.5605,2.5622,2.5638,2.5641,2.5562,2.5552,2.5542,2.5527,2.5642,2.5642,2.5721,2.5722,2.5722]},{"header":{"parameterUnit":"m.s-1","parameterCategory":1,"la1":30.2991,"la2":30.254,"lo1":-89.0895,"lo2":-89.0444,"dy":0.0017,"dx":0.0017,"nx":28,"ny":28,"refTime":"2025-05-16T09:00:00:Z","depth":0,"parameterNumber":3,"parameterNumberName":"V-component_of_WINDS"},"data":[0,0,0,0,0,0,0,0,0,0,0,0,0,0,0,0,0,0,0,0,0,0,0,0,0,0,0,0,0,0,0,0,0,0,0,0,0,0,0,0,0,0,0,0,0,0,0,0,0,0,0,0,0,0,0,0,0,0,3.8068,3.8068,0,3.815,3.8151,3.8152,3.8119,3.8117,3.8115,3.8113,3.8194,3.8198,3.8202,0,0,0,0,0,0,0,0,0,0,0,0,0,3.7876,3.788,3.8067,3.8069,3.807,3.815,3.8151,3.8152,3.8119,3.8117,3.8115,3.8112,3.8193,3.8197,3.8202,0,0,0,0,0,0,0,0,0,0,0,0,0,3.7959,3.7881,3.8067,3.8063,3.8063,3.815,3.8151,3.8153,3.812,3.8117,3.8114,3.8111,3.8191,3.8197,3.8203,3.8297,0,0,3.8221,3.8223,0,0,0,0,0,0,0,0,3.7954,3.7966,3.8062,3.8063,3.8064,3.8121,3.8113,3.8201,3.8121,3.8098,3.8113,3.811,3.8172,3.8179,3.8201,3.8301,3.8304,3.8221,3.8225,3.8227,3.8229,0,0,0,0,0,0,0,3.7949,3.7962,3.81,3.8064,3.8065,3.8055,3.8064,3.813,3.815,3.81,3.8098,3.8108,3.8172,3.8195,3.8202,3.8305,3.8221,3.8226,3.823,3.8232,3.8486,3.8489,0,0,0,0,0,0,3.7943,3.7958,3.8097,3.8103,3.8001,3.8061,3.8071,3.8106,3.8149,3.8153,3.8111,3.8106,3.8187,3.8196,3.8205,3.8319,3.8227,3.8233,3.8236,3.8483,3.8487,3.849,0,0,0,0,0,0,3.7939,3.7956,3.8094,3.803,3.8046,3.8067,3.8107,3.8109,3.8133,3.8158,3.816,3.8131,3.8185,3.8197,3.8275,3.8321,3.8235,3.8241,3.8479,3.8484,3.8489,3.8547,0,0,0,0,0,0,3.7934,3.7955,3.7992,3.8031,3.805,3.8164,3.811,3.8113,3.8144,3.8139,3.8178,3.8181,3.8183,3.8266,3.8281,3.8328,3.8245,3.8475,3.8481,3.8487,3.8541,3.8553,3.8563,0,0,0,0,0,3.7927,3.8004,3.7994,3.8011,3.8097,3.8167,3.8178,3.8179,3.8147,3.8184,3.82,3.818,3.8313,3.8274,3.829,3.834,3.8472,3.848,3.8487,3.8536,3.855,3.8563,0,0,0,0,0,0,3.7969,3.8009,3.7999,3.8091,3.8126,3.8161,3.8208,3.8195,3.8239,3.8232,3.8231,3.824,3.8321,3.8338,3.8293,3.8433,3.8388,3.8399,3.8419,3.8434,3.8445,3.8439,3.825,0,0,0,0,0,3.799,3.8044,3.8075,3.8154,3.8172,3.8187,3.8217,3.8216,3.8251,3.8265,3.8287,3.8321,3.837,3.8403,3.8449,3.8542,3.855,3.8584,3.8596,3.8605,3.8614,3.8664,3.868,3.8514,3.8514,3.8514,0,0,3.8032,3.806,3.8094,3.8163,3.819,3.8245,3.82,3.826,3.83,3.8274,3.8349,3.8366,3.8403,3.8489,3.8528,3.8506,3.8661,3.8614,3.8621,3.8626,3.8673,3.8689,3.8703,3.8519,3.8518,3.8517,0,0,3.8137,3.8164,3.8232,3.826,3.8302,3.8311,3.8328,3.8365,3.8376,3.8451,3.8433,3.8479,3.8565,3.8593,3.8618,3.8732,3.8715,3.8747,3.8806,3.8855,3.8868,3.888,3.8921,3.8935,3.8756,3.8757,3.8757,0,3.8183,3.8267,3.8269,3.8331,3.8361,3.8341,3.8409,3.8435,3.849,3.851,3.8485,3.8592,3.8615,3.8707,3.8735,3.8756,3.8774,3.8743,3.8866,3.8878,3.8889,3.8928,3.8943,3.876,3.876,3.8759,3.8759,0,3.8322,3.8381,3.843,3.8485,3.8521,3.8585,3.8595,3.863,3.8625,3.8637,3.8714,3.8741,3.8794,3.8815,3.881,3.8906,3.8891,3.8866,3.8821,3.8908,3.8945,3.896,3.8765,3.8764,3.8763,3.8762,0,0,3.8457,3.8512,3.853,3.8554,3.8599,3.8643,3.8706,3.8758,3.8788,3.8826,3.8878,3.895,3.8928,3.8956,3.8954,3.8997,3.9086,3.8966,3.8967,3.8988,3.9193,3.9212,3.9229,3.9074,3.9077,3.9079,3.9189,0,3.8566,3.8679,3.8682,3.8784,3.8837,3.8818,3.8873,3.8905,3.8917,3.8963,3.8975,3.9027,3.8993,3.901,3.9051,3.9066,3.9127,3.9058,3.9122,3.9124,3.9114,3.9248,3.9269,3.9371,3.9204,3.9206,3.9208,0,3.8708,3.8752,3.8861,3.8897,3.8919,3.8969,3.9017,3.9061,3.9096,3.9101,3.9133,3.9125,3.9187,3.9139,3.9225,3.9178,3.9204,3.9215,3.9219,3.9226,3.9172,3.9259,3.9404,3.942,3.923,3.9229,3.9227,0,3.8796,3.8882,3.8958,3.8979,3.9023,3.9058,3.9078,3.9111,3.9142,3.9183,3.9203,3.925,3.9276,3.9312,3.9315,3.928,3.9401,3.9354,3.9407,3.9407,3.9434,3.9433,3.9587,3.945,3.945,3.9449,3.9449,0,3.8918,3.8985,3.8998,3.9045,3.9119,3.912,3.9193,3.921,3.9239,3.9287,3.9272,3.9318,3.932,3.9366,3.9368,3.9439,3.945,3.9456,3.9456,3.9458,3.9457,3.9475,3.9468,3.9454,3.9453,3.9452,3.9451,0,3.9029,3.9041,3.9122,3.9158,3.9168,3.9221,3.925,3.9294,3.9304,3.9366,3.938,3.9396,3.9449,3.9456,3.9518,3.952,3.9605,3.9597,3.9594,3.9593,3.9646,3.9641,3.9817,3.984,3.9688,3.969,3.9691,0,3.9106,3.9158,3.9199,3.9231,3.9253,3.9305,3.9337,3.9339,3.9373,3.9416,3.9455,3.9507,3.9549,3.9635,3.9651,3.9698,3.9691,3.975,3.9698,3.9698,3.9692,3.969,3.9695,3.976,3.9762,3.9763,3.9764,0,3.9242,3.9246,3.9293,3.9343,3.9382,3.942,3.9457,3.9483,3.949,3.9528,3.9583,3.9616,3.968,3.9731,3.9778,3.9796,3.9781,3.978,3.9795,3.9798,3.9794,3.9797,3.9621,3.9776,3.9775,3.9774,3.9773,3.9773,3.9339,3.9384,3.942,3.9473,3.9501,3.9535,3.9578,3.9594,3.9641,3.9694,3.9692,3.9753,3.9785,3.9846,3.9868,3.9914,3.9894,3.9916,3.9922,3.9927,3.9933,3.9786,3.9922,3.9922,3.9921,3.9921,3.9921,0,3.9475,3.9497,3.9546,3.9598,3.9639,3.9623,3.9662,3.9697,3.9752,3.9784,3.9826,3.9889,3.9938,3.9958,4.0007,4.004,4.0034,4.0052,4.005,4.0055,3.9947,3.993,4.0056,4.0056,4.0056,4.0056,4.0056,4.0056,3.955,3.9625,3.9633,3.9721,3.9741,3.9802,3.9826,3.9857,3.9883,3.9954,3.9996,4.0009,4.0036,4.0086,4.0131,4.0135,4.0154,4.0175,4.0177,4.0076,4.0062,4.0049,4.0033,4.0179,4.0179,4.028,4.0281,4.0282]}]]